VKG132 EKCH-LEPA

Flight info

Callsign VKG132
Flight time 2h 46m
Altitude 36000
Route NEXEN T503 GIMRU DCT MICOS DCT WRB DCT XAROL DCT BOMBI DCT GIGET DCT ABUKA DCT KRH DCT NATOR DCT LUTIX DCT BENOT DCT NEMOS DCT GEVEA DCT INCUS DCT BALSI DCT RETNO DCT TUPOX DCT MTG DCT DIVKO DCT VATIR N852 VERSO L129 LUNIK
Aircraft A21N/M-SDE2E3FGHIJ1J3J4J5P2RWXYZ/LB2D1G1

Departure

Time 2026-05-04 06:41
Airport Copenhagen Kastrup Airport (EKCH)

Arrival

Time 2026-05-04 09:27
Airport Palma de Mallorca Airport (LEPA)
Time Latitude Longitude Altitude Speed Heading
2026-05-04 06:09 55.62891 12.63803 23 ft 0 kts 12°
2026-05-04 06:29 55.62882 12.63800 22 ft 2 kts 12°
2026-05-04 06:29 55.62862 12.63789 23 ft 4 kts 42°
2026-05-04 06:30 55.62853 12.63754 26 ft 4 kts 101°
2026-05-04 06:30 55.62858 12.63712 23 ft 4 kts 95°
2026-05-04 06:30 55.62859 12.63675 22 ft 3 kts 89°
2026-05-04 06:30 55.62859 12.63666 22 ft 0 kts 89°
2026-05-04 06:36 55.62741 12.63912 22 ft 15 kts 200°
2026-05-04 06:37 55.62644 12.63885 22 ft 16 kts 139°
2026-05-04 06:37 55.62579 12.64051 24 ft 17 kts 121°
2026-05-04 06:37 55.62512 12.64233 22 ft 18 kts 124°
2026-05-04 06:37 55.62436 12.64415 22 ft 19 kts 134°
2026-05-04 06:38 55.62310 12.64420 22 ft 20 kts 197°
2026-05-04 06:38 55.62180 12.64330 21 ft 21 kts 207°
2026-05-04 06:40 55.61663 12.64087 26 ft 15 kts 188°
2026-05-04 06:40 55.61542 12.63950 25 ft 29 kts 220°
2026-05-04 06:40 55.61219 12.63448 26 ft 103 kts 221°
2026-05-04 06:40 55.60492 12.62307 90 ft 166 kts 223°
2026-05-04 06:41 55.59545 12.60880 580 ft 190 kts 221°
2026-05-04 06:41 55.58446 12.59377 1321 ft 208 kts 221°
2026-05-04 06:41 55.57325 12.57628 2114 ft 222 kts 228°
2026-05-04 06:41 55.56146 12.55769 3093 ft 231 kts 221°
2026-05-04 06:42 55.54791 12.54187 4165 ft 235 kts 219°
2026-05-04 06:42 55.53411 12.52506 4841 ft 249 kts 219°
2026-05-04 06:42 55.51955 12.50716 5469 ft 259 kts 219°
2026-05-04 06:44 55.41169 12.37515 10514 ft 303 kts 219°
2026-05-04 06:44 55.39392 12.35349 10980 ft 315 kts 219°
2026-05-04 06:44 55.37571 12.33139 11667 ft 320 kts 218°
2026-05-04 06:45 55.35728 12.30908 12439 ft 323 kts 218°
2026-05-04 06:45 55.33871 12.28658 13218 ft 326 kts 218°
2026-05-04 06:45 55.32002 12.26393 13952 ft 328 kts 218°
2026-05-04 06:45 55.30115 12.24110 14630 ft 330 kts 218°
2026-05-04 06:46 55.28216 12.21821 15337 ft 332 kts 218°
2026-05-04 06:46 55.26308 12.19520 16003 ft 334 kts 218°
2026-05-04 06:46 55.24387 12.17204 16680 ft 336 kts 218°
2026-05-04 06:46 55.22454 12.14874 17347 ft 338 kts 218°
2026-05-04 06:48 55.08845 11.97618 21186 ft 353 kts 219°
2026-05-04 06:48 55.06852 11.95083 21689 ft 356 kts 219°
2026-05-04 06:49 55.04846 11.92536 22207 ft 358 kts 218°
2026-05-04 06:50 54.90425 11.74285 25325 ft 373 kts 218°
2026-05-04 06:51 54.88318 11.71636 25738 ft 375 kts 219°
2026-05-04 06:51 54.86197 11.68968 26136 ft 377 kts 219°
2026-05-04 06:51 54.84067 11.66290 26527 ft 379 kts 219°
2026-05-04 06:51 54.81926 11.63603 26909 ft 381 kts 219°
2026-05-04 06:52 54.79772 11.60906 27289 ft 382 kts 219°
2026-05-04 06:52 54.77602 11.58195 27647 ft 384 kts 219°
2026-05-04 06:52 54.75455 11.55515 27993 ft 386 kts 219°
2026-05-04 06:52 54.73273 11.52797 28339 ft 388 kts 219°
2026-05-04 06:53 54.71077 11.50065 28650 ft 390 kts 219°
2026-05-04 06:53 54.68869 11.47322 29011 ft 391 kts 219°
2026-05-04 06:53 54.66654 11.44572 29368 ft 393 kts 219°
2026-05-04 06:53 54.64433 11.41815 29696 ft 394 kts 219°
2026-05-04 06:54 54.62198 11.39041 30020 ft 396 kts 219°
2026-05-04 06:54 54.59961 11.36271 30335 ft 396 kts 219°
2026-05-04 06:54 54.57723 11.33505 30698 ft 396 kts 219°
2026-05-04 06:54 54.55487 11.30748 31012 ft 395 kts 219°
2026-05-04 06:55 54.53244 11.28003 31338 ft 395 kts 218°
2026-05-04 06:55 54.50998 11.25277 31650 ft 395 kts 218°
2026-05-04 06:55 54.48754 11.22552 31955 ft 395 kts 218°
2026-05-04 06:55 54.46517 11.19835 32285 ft 393 kts 218°
2026-05-04 06:56 54.44284 11.17124 32633 ft 392 kts 218°
2026-05-04 06:57 54.28470 10.98960 34319 ft 395 kts 207°
2026-05-04 06:58 54.25935 10.97116 34476 ft 397 kts 206°
2026-05-04 06:58 54.23384 10.95304 34618 ft 397 kts 206°
2026-05-04 06:58 54.20828 10.93480 34771 ft 398 kts 206°
2026-05-04 06:58 54.18271 10.91644 34927 ft 399 kts 206°
2026-05-04 06:59 54.15716 10.89809 35068 ft 399 kts 206°
2026-05-04 06:59 54.13152 10.87962 35212 ft 400 kts 206°
2026-05-04 06:59 54.10585 10.86116 35350 ft 401 kts 206°
2026-05-04 06:59 54.08014 10.84269 35484 ft 402 kts 206°
2026-05-04 07:01 53.89803 10.71272 35986 ft 415 kts 206°
2026-05-04 07:01 53.87136 10.69380 35971 ft 418 kts 206°
2026-05-04 07:02 53.81765 10.65572 35967 ft 423 kts 206°
2026-05-04 07:02 53.76345 10.61735 35939 ft 422 kts 206°
2026-05-04 07:03 53.70925 10.57916 35956 ft 422 kts 206°
2026-05-04 07:03 53.65505 10.54107 35967 ft 422 kts 206°
2026-05-04 07:04 53.60089 10.50313 35969 ft 422 kts 206°
2026-05-04 07:04 53.54670 10.46525 35969 ft 422 kts 206°
2026-05-04 07:05 53.49250 10.42756 35956 ft 421 kts 206°
2026-05-04 07:05 53.43830 10.38983 35968 ft 422 kts 206°
2026-05-04 07:06 53.35698 10.33351 35968 ft 422 kts 206°
2026-05-04 07:07 53.30276 10.29605 35971 ft 422 kts 206°
2026-05-04 07:09 53.08537 10.14709 35967 ft 422 kts 205°
2026-05-04 07:09 53.03134 10.11027 35970 ft 422 kts 205°
2026-05-04 07:10 52.97658 10.07308 35963 ft 422 kts 205°
2026-05-04 07:12 52.75908 9.92644 35962 ft 421 kts 205°
2026-05-04 07:12 52.70460 9.88994 35965 ft 422 kts 205°
2026-05-04 07:13 52.65019 9.85358 35965 ft 423 kts 205°
2026-05-04 07:13 52.59578 9.81736 35950 ft 423 kts 205°
2026-05-04 07:14 52.46883 9.73311 35990 ft 420 kts 205°
2026-05-04 07:15 52.41442 9.69717 35996 ft 421 kts 205°
2026-05-04 07:15 52.35994 9.66134 35980 ft 422 kts 205°
2026-05-04 07:16 52.30558 9.62568 35992 ft 422 kts 205°
2026-05-04 07:16 52.25108 9.59000 35984 ft 420 kts 205°
2026-05-04 07:17 52.19665 9.55440 35972 ft 420 kts 205°
2026-05-04 07:17 52.14216 9.51893 35976 ft 423 kts 205°
2026-05-04 07:18 52.08812 9.48381 35976 ft 421 kts 205°
2026-05-04 07:18 52.03380 9.44854 35977 ft 420 kts 205°
2026-05-04 07:19 51.97942 9.41342 35979 ft 422 kts 205°
2026-05-04 07:19 51.92501 9.37840 35977 ft 420 kts 205°
2026-05-04 07:20 51.87067 9.34348 35981 ft 420 kts 205°
2026-05-04 07:20 51.81626 9.30861 35982 ft 422 kts 205°
2026-05-04 07:22 51.59891 9.17005 35983 ft 418 kts 204°
2026-05-04 07:23 51.54482 9.13574 35988 ft 420 kts 204°
2026-05-04 07:23 51.48949 9.10522 35986 ft 421 kts 197°
2026-05-04 07:24 51.43190 9.08551 35979 ft 423 kts 195°
2026-05-04 07:24 51.37439 9.06624 35987 ft 423 kts 195°
2026-05-04 07:26 51.14065 9.01128 35993 ft 426 kts 191°
2026-05-04 07:27 51.08183 8.99952 35992 ft 426 kts 191°
2026-05-04 07:27 51.02291 8.98780 35995 ft 426 kts 191°
2026-05-04 07:28 50.96400 8.97615 35996 ft 426 kts 191°
2026-05-04 07:28 50.90508 8.96461 35997 ft 426 kts 191°
2026-05-04 07:29 50.84620 8.95295 36000 ft 426 kts 191°
2026-05-04 07:29 50.78714 8.94140 36008 ft 427 kts 191°
2026-05-04 07:30 50.72819 8.92985 36003 ft 426 kts 191°
2026-05-04 07:30 50.66914 8.91829 36015 ft 428 kts 191°
2026-05-04 07:31 50.61018 8.90678 36016 ft 428 kts 191°
2026-05-04 07:33 50.37490 8.86123 36019 ft 426 kts 191°
2026-05-04 07:33 50.31603 8.84991 36022 ft 425 kts 191°
2026-05-04 07:34 50.25742 8.83869 36018 ft 424 kts 191°
2026-05-04 07:34 50.19870 8.82752 36026 ft 427 kts 191°
2026-05-04 07:35 50.14000 8.81630 36023 ft 424 kts 191°
2026-05-04 07:35 50.08141 8.80510 36009 ft 424 kts 191°
2026-05-04 07:36 50.02269 8.79359 36024 ft 425 kts 191°
2026-05-04 07:38 49.78760 8.74456 36023 ft 427 kts 191°
2026-05-04 07:38 49.72917 8.73250 36024 ft 427 kts 191°
2026-05-04 07:39 49.66980 8.72043 36025 ft 427 kts 191°
2026-05-04 07:39 49.61132 8.70867 36016 ft 427 kts 191°
2026-05-04 07:40 49.55244 8.69676 36024 ft 427 kts 191°
2026-05-04 07:40 49.49341 8.68487 36029 ft 427 kts 191°
2026-05-04 07:41 49.43443 8.67303 36031 ft 428 kts 191°
2026-05-04 07:41 49.37559 8.66116 36025 ft 427 kts 190°
2026-05-04 07:42 49.31661 8.64933 36031 ft 426 kts 191°
2026-05-04 07:42 49.25766 8.63738 36032 ft 427 kts 191°
2026-05-04 07:43 49.19883 8.62550 36014 ft 426 kts 191°
2026-05-04 07:43 49.13998 8.61366 36030 ft 428 kts 190°
2026-05-04 07:44 49.08113 8.60185 36034 ft 427 kts 190°
2026-05-04 07:44 49.02221 8.59008 36033 ft 427 kts 190°
2026-05-04 07:45 48.96394 8.57502 36021 ft 424 kts 194°
2026-05-04 07:45 48.90666 8.55642 36021 ft 423 kts 194°
2026-05-04 07:46 48.84888 8.53767 36023 ft 424 kts 195°
2026-05-04 07:46 48.79121 8.51903 36025 ft 426 kts 194°
2026-05-04 07:47 48.73351 8.50046 36022 ft 423 kts 195°
2026-05-04 07:49 48.50289 8.42665 36026 ft 423 kts 194°
2026-05-04 07:49 48.44538 8.40838 36026 ft 422 kts 194°
2026-05-04 07:50 48.38776 8.39004 36036 ft 424 kts 194°
2026-05-04 07:50 48.33014 8.37180 36028 ft 423 kts 194°
2026-05-04 07:51 48.27241 8.35359 36033 ft 425 kts 194°
2026-05-04 07:51 48.21507 8.33549 36029 ft 424 kts 194°
2026-05-04 07:52 48.15903 8.31010 36028 ft 419 kts 209°
2026-05-04 07:52 48.10964 8.26394 36029 ft 418 kts 214°
2026-05-04 07:54 47.91429 8.07532 36031 ft 418 kts 214°
2026-05-04 07:55 47.86528 8.02851 36035 ft 419 kts 214°
2026-05-04 07:55 47.81620 7.98168 36043 ft 418 kts 214°
2026-05-04 07:56 47.76717 7.93503 36048 ft 418 kts 214°
2026-05-04 07:56 47.71811 7.88844 36043 ft 419 kts 214°
2026-05-04 07:57 47.66894 7.84185 36044 ft 419 kts 213°
2026-05-04 07:57 47.61977 7.79541 36048 ft 419 kts 213°
2026-05-04 07:58 47.57086 7.74935 36048 ft 419 kts 213°
2026-05-04 07:58 47.52164 7.70307 36043 ft 419 kts 213°
2026-05-04 07:59 47.47246 7.65686 36047 ft 419 kts 213°
2026-05-04 07:59 47.42312 7.61072 36055 ft 419 kts 213°
2026-05-04 08:00 47.38213 7.57248 36052 ft 419 kts 213°
2026-05-04 08:02 47.18493 7.38898 36059 ft 419 kts 214°
2026-05-04 08:02 47.14269 7.33090 36054 ft 419 kts 231°
2026-05-04 08:03 47.10673 7.26381 36044 ft 418 kts 231°
2026-05-04 08:03 47.07058 7.19696 36045 ft 418 kts 231°
2026-05-04 08:04 47.03436 7.13032 36054 ft 418 kts 231°
2026-05-04 08:04 46.99803 7.06381 36053 ft 418 kts 231°
2026-05-04 08:05 46.96169 6.99740 36047 ft 418 kts 231°
2026-05-04 08:05 46.92523 6.93100 36067 ft 417 kts 230°
2026-05-04 08:06 46.88372 6.87226 36060 ft 416 kts 220°
2026-05-04 08:06 46.83868 6.81900 36044 ft 416 kts 219°
2026-05-04 08:08 46.65910 6.60623 36049 ft 417 kts 220°
2026-05-04 08:11 46.45662 6.36823 36040 ft 414 kts 219°
2026-05-04 08:11 46.38931 6.28963 36036 ft 414 kts 219°
2026-05-04 08:12 46.34435 6.23730 36059 ft 415 kts 219°
2026-05-04 08:12 46.29929 6.18499 36054 ft 415 kts 219°
2026-05-04 08:13 46.25148 6.13807 36057 ft 418 kts 206°
2026-05-04 08:13 46.22386 6.12497 36060 ft 421 kts 194°
2026-05-04 08:13 46.19490 6.11787 36055 ft 422 kts 191°
2026-05-04 08:14 46.13671 6.10583 36050 ft 422 kts 191°
2026-05-04 08:16 45.90436 6.05482 36053 ft 423 kts 192°
2026-05-04 08:16 45.84618 6.04199 36056 ft 423 kts 192°
2026-05-04 08:17 45.78813 6.02907 36048 ft 422 kts 192°
2026-05-04 08:17 45.73002 6.01623 36055 ft 422 kts 192°
2026-05-04 08:19 45.49754 5.96520 36048 ft 422 kts 192°
2026-05-04 08:20 45.43989 5.94921 36059 ft 420 kts 195°
2026-05-04 08:20 45.38307 5.93133 36060 ft 421 kts 195°
2026-05-04 08:21 45.32557 5.91332 36051 ft 421 kts 195°
2026-05-04 08:21 45.26822 5.89544 36057 ft 422 kts 195°
2026-05-04 08:22 45.21098 5.87769 36055 ft 421 kts 195°
2026-05-04 08:24 44.98182 5.80683 36056 ft 422 kts 195°
2026-05-04 08:24 44.92454 5.78923 36068 ft 421 kts 195°
2026-05-04 08:25 44.86738 5.77165 36122 ft 421 kts 195°
2026-05-04 08:25 44.83886 5.76294 36372 ft 417 kts 195°
2026-05-04 08:25 44.81063 5.75432 36669 ft 413 kts 195°
2026-05-04 08:26 44.78254 5.74572 36862 ft 413 kts 195°
2026-05-04 08:27 44.58668 5.68620 37964 ft 411 kts 196°
2026-05-04 08:28 44.55879 5.67777 38112 ft 410 kts 196°
2026-05-04 08:28 44.53080 5.66934 38140 ft 412 kts 196°
2026-05-04 08:28 44.47446 5.65226 38125 ft 416 kts 196°
2026-05-04 08:29 44.41759 5.63509 38115 ft 419 kts 196°
2026-05-04 08:31 44.19993 5.52526 38097 ft 417 kts 204°
2026-05-04 08:33 43.98379 5.40770 38091 ft 418 kts 205°
2026-05-04 08:35 43.76726 5.29042 38041 ft 417 kts 205°
2026-05-04 08:35 43.71324 5.26138 38036 ft 416 kts 205°
2026-05-04 08:37 43.52511 5.16073 38022 ft 415 kts 205°
2026-05-04 08:38 43.47142 5.13211 38031 ft 412 kts 205°
2026-05-04 08:38 43.41791 5.10365 38019 ft 413 kts 205°
2026-05-04 08:40 43.25062 4.95906 38020 ft 404 kts 218°
2026-05-04 08:40 43.22741 4.93727 38029 ft 403 kts 217°
2026-05-04 08:41 43.18107 4.89384 38021 ft 405 kts 217°
2026-05-04 08:41 43.13467 4.85044 38012 ft 403 kts 217°
2026-05-04 08:42 43.08822 4.80698 38005 ft 405 kts 217°
2026-05-04 08:42 43.04090 4.76534 38011 ft 405 kts 213°
2026-05-04 08:43 42.99152 4.72777 38013 ft 407 kts 212°
2026-05-04 08:43 42.94221 4.69046 38005 ft 406 kts 212°
2026-05-04 08:44 42.90117 4.65946 38002 ft 407 kts 213°
2026-05-04 08:46 42.70366 4.51067 37994 ft 404 kts 212°
2026-05-04 08:46 42.65462 4.47386 37994 ft 407 kts 212°
2026-05-04 08:47 42.60525 4.43693 37996 ft 405 kts 212°
2026-05-04 08:47 42.55588 4.40004 37985 ft 404 kts 212°
2026-05-04 08:48 42.50654 4.36325 37973 ft 406 kts 212°
2026-05-04 08:48 42.45725 4.32661 37986 ft 402 kts 212°
2026-05-04 08:49 42.40796 4.28998 37991 ft 404 kts 212°
2026-05-04 08:50 42.23609 4.16274 37981 ft 401 kts 213°
2026-05-04 08:51 42.18701 4.12661 37976 ft 403 kts 212°
2026-05-04 08:51 42.13798 4.09050 37975 ft 402 kts 213°
2026-05-04 08:52 42.08902 4.05459 37978 ft 398 kts 213°
2026-05-04 08:52 42.04024 4.01882 37977 ft 400 kts 213°
2026-05-04 08:54 41.83269 3.91221 37975 ft 410 kts 196°
2026-05-04 08:55 41.77677 3.89962 37978 ft 408 kts 197°
2026-05-04 08:55 41.72074 3.88674 37980 ft 410 kts 197°
2026-05-04 09:01 41.14039 3.75075 35973 ft 385 kts 205°
2026-05-04 09:01 41.11535 3.73824 35723 ft 384 kts 207°
2026-05-04 09:01 41.09056 3.72519 35448 ft 384 kts 207°
2026-05-04 09:01 41.06579 3.71217 34899 ft 382 kts 207°
2026-05-04 09:02 41.04108 3.69888 34999 ft 384 kts 208°
2026-05-04 09:02 40.99475 3.66575 34899 ft 369 kts 226°
2026-05-04 09:02 40.97905 3.63970 34146 ft 368 kts 237°
2026-05-04 09:03 40.96195 3.61451 33399 ft 371 kts 221°
2026-05-04 09:03 40.93915 3.59796 32539 ft 381 kts 206°
2026-05-04 09:03 40.91440 3.58544 31918 ft 380 kts 204°
2026-05-04 09:03 40.88942 3.57492 31481 ft 374 kts 203°
2026-05-04 09:04 40.86471 3.56498 30984 ft 369 kts 202°
2026-05-04 09:04 40.84031 3.55514 30417 ft 365 kts 203°
2026-05-04 09:04 40.81610 3.54530 29809 ft 363 kts 203°
2026-05-04 09:04 40.79197 3.53548 29156 ft 361 kts 203°
2026-05-04 09:05 40.76807 3.52574 28537 ft 359 kts 202°
2026-05-04 09:05 40.74428 3.51604 27936 ft 356 kts 202°
2026-05-04 09:05 40.72068 3.50643 27347 ft 354 kts 202°
2026-05-04 09:05 40.69717 3.49687 26770 ft 352 kts 202°
2026-05-04 09:06 40.67383 3.48738 26205 ft 350 kts 202°
2026-05-04 09:07 40.51382 3.42248 22218 ft 338 kts 201°
2026-05-04 09:08 40.49142 3.41342 21609 ft 336 kts 201°
2026-05-04 09:08 40.46909 3.40439 21099 ft 336 kts 201°
2026-05-04 09:08 40.44666 3.39578 20647 ft 335 kts 197°
2026-05-04 09:08 40.42338 3.39278 20199 ft 338 kts 185°
2026-05-04 09:09 40.39995 3.39391 19775 ft 337 kts 183°
2026-05-04 09:09 40.37660 3.39555 19349 ft 335 kts 182°
2026-05-04 09:09 40.35343 3.39710 18932 ft 333 kts 182°
2026-05-04 09:09 40.33031 3.39854 18522 ft 332 kts 182°
2026-05-04 09:10 40.30725 3.39990 18096 ft 331 kts 182°
2026-05-04 09:10 40.28422 3.40122 17650 ft 331 kts 182°
2026-05-04 09:10 40.26156 3.40252 17216 ft 330 kts 182°
2026-05-04 09:10 40.23857 3.40382 16789 ft 329 kts 182°
2026-05-04 09:11 40.21572 3.40511 16389 ft 328 kts 182°
2026-05-04 09:11 40.19294 3.40640 15983 ft 327 kts 182°
2026-05-04 09:11 40.17032 3.40768 15607 ft 325 kts 182°
2026-05-04 09:11 40.14774 3.40896 15216 ft 323 kts 182°
2026-05-04 09:12 40.12530 3.41023 14816 ft 323 kts 181°
2026-05-04 09:12 40.10290 3.41149 14424 ft 322 kts 181°
2026-05-04 09:14 39.95275 3.42001 11870 ft 289 kts 181°
2026-05-04 09:14 39.93271 3.42113 11516 ft 288 kts 181°
2026-05-04 09:14 39.91273 3.42225 11170 ft 287 kts 181°
2026-05-04 09:14 39.89287 3.42337 10832 ft 285 kts 180°
2026-05-04 09:15 39.87306 3.42447 10502 ft 284 kts 180°
2026-05-04 09:15 39.85334 3.42558 10184 ft 283 kts 180°
2026-05-04 09:15 39.83378 3.42668 9868 ft 281 kts 180°
2026-05-04 09:15 39.81432 3.42777 9520 ft 279 kts 180°
2026-05-04 09:17 39.69823 3.36336 6965 ft 264 kts 270°
2026-05-04 09:18 39.69946 3.33958 6666 ft 264 kts 271°
2026-05-04 09:18 39.70064 3.31585 6347 ft 263 kts 270°
2026-05-04 09:18 39.70167 3.29219 5999 ft 262 kts 270°
2026-05-04 09:18 39.70260 3.26852 5664 ft 262 kts 270°
2026-05-04 09:19 39.70345 3.24498 5347 ft 261 kts 270°
2026-05-04 09:19 39.70423 3.22156 5038 ft 260 kts 269°
2026-05-04 09:19 39.70499 3.19814 4707 ft 260 kts 270°
2026-05-04 09:19 39.70574 3.17498 4501 ft 251 kts 269°
2026-05-04 09:20 39.70632 3.15302 4465 ft 238 kts 269°
2026-05-04 09:20 39.70685 3.13169 4467 ft 236 kts 269°
2026-05-04 09:20 39.70742 3.11092 4469 ft 220 kts 269°
2026-05-04 09:20 39.70732 3.09154 4473 ft 211 kts 259°
2026-05-04 09:21 39.70267 3.07378 4341 ft 207 kts 239°
2026-05-04 09:21 39.69513 3.05783 4107 ft 208 kts 237°
2026-05-04 09:21 39.68752 3.04210 3808 ft 206 kts 237°
2026-05-04 09:21 39.67997 3.02628 3475 ft 206 kts 237°
2026-05-04 09:22 39.67243 3.01033 3185 ft 207 kts 237°
2026-05-04 09:22 39.66492 2.99444 3000 ft 205 kts 237°
2026-05-04 09:22 39.65752 2.97867 2978 ft 205 kts 237°
2026-05-04 09:22 39.65014 2.96294 2980 ft 208 kts 237°
2026-05-04 09:23 39.64261 2.94694 2993 ft 207 kts 237°
2026-05-04 09:23 39.63511 2.93097 2998 ft 208 kts 238°
2026-05-04 09:23 39.62762 2.91489 2829 ft 202 kts 237°
2026-05-04 09:23 39.62043 2.89964 2533 ft 195 kts 237°
2026-05-04 09:25 39.58036 2.81456 1005 ft 142 kts 237°
2026-05-04 09:25 39.57510 2.80362 789 ft 144 kts 236°
2026-05-04 09:26 39.56960 2.79264 551 ft 145 kts 237°
2026-05-04 09:26 39.56459 2.78136 391 ft 143 kts 241°
2026-05-04 09:26 39.55954 2.77026 236 ft 143 kts 237°
2026-05-04 09:26 39.55428 2.75929 60 ft 143 kts 238°
2026-05-04 09:27 39.54953 2.74923 43 ft 103 kts 238°
2026-05-04 09:27 39.54714 2.74417 42 ft 49 kts 238°
2026-05-04 09:27 39.54593 2.74156 44 ft 22 kts 242°
2026-05-04 09:27 39.54555 2.73961 44 ft 23 kts 266°
2026-05-04 09:28 39.54549 2.73793 41 ft 16 kts 273°
2026-05-04 09:28 39.54588 2.73744 44 ft 10 kts
2026-05-04 09:28 39.54639 2.73810 44 ft 12 kts 62°
2026-05-04 09:28 39.54685 2.73908 44 ft 14 kts 56°
2026-05-04 09:29 39.54738 2.74021 44 ft 16 kts 61°
2026-05-04 09:29 39.54816 2.74118 44 ft 17 kts 356°
2026-05-04 09:29 39.54925 2.74038 44 ft 19 kts 333°
2026-05-04 09:29 39.55045 2.73953 43 ft 20 kts 328°
2026-05-04 09:30 39.55131 2.73884 42 ft 10 kts 330°
2026-05-04 09:30 39.55172 2.73849 42 ft 11 kts 308°
2026-05-04 09:30 39.55170 2.73752 44 ft 12 kts 296°
2026-05-04 09:30 39.55175 2.73689 44 ft 7 kts 242°
2026-05-04 09:31 39.55147 2.73636 44 ft 8 kts 209°
2026-05-04 09:31 39.55109 2.73623 44 ft 4 kts 191°
2026-05-04 09:31 39.55091 2.73619 44 ft 0 kts 188°